www.pogodaiklimat.ru
ПОГОДА в Макарска
Время
(UTC), дата
07 24.09
08 24.09
09 24.09
10 24.09
11 24.09
12 24.09
13 24.09
14 24.09
15 24.09
16 24.09
17 24.09
18 24.09
19 24.09
20 24.09
21 24.09
00 25.09
03 25.09
04 25.09
05 25.09
06 25.09
07 25.09
08 25.09
09 25.09
10 25.09
11 25.09
12 25.09
13 25.09
17 25.09
18 25.09
19 25.09
20 25.09
21 25.09
00 26.09
03 26.09
04 26.09
05 26.09
06 26.09
07 26.09
08 26.09
09 26.09
10 26.09
11 26.09
12 26.09
13 26.09
14 26.09
15 26.09
16 26.09
17 26.09
18 26.09
19 26.09
20 26.09
21 26.09
00 27.09
03 27.09
04 27.09
05 27.09
06 27.09
07 27.09
08 27.09
09 27.09
10 27.09
11 27.09
12 27.09
13 27.09
14 27.09
15 27.09
16 27.09
17 27.09
18 27.09
19 27.09
20 27.09
21 27.09
00 28.09
03 28.09
04 28.09
05 28.09
06 28.09
07 28.09
08 28.09
09 28.09
10 28.09
11 28.09
12 28.09
13 28.09
14 28.09
15 28.09
16 28.09
17 28.09
18 28.09
19 28.09
20 28.09
21 28.09
00 29.09
03 29.09
04 29.09
05 29.09
06 29.09
07 29.09
08 29.09
09 29.09
10 29.09
11 29.09
12 29.09
13 29.09
14 29.09
15 29.09
16 29.09
17 29.09
18 29.09
19 29.09
20 29.09
21 29.09
00 30.09
03 30.09
04 30.09
05 30.09
06 30.09
07 30.09
08 30.09
09 30.09
10 30.09
11 30.09
12 30.09
13 30.09
14 30.09
15 30.09
16 30.09
17 30.09
18 30.09
19 30.09
20 30.09
21 30.09
00 1.10
03 1.10
04 1.10
05 1.10
06 1.10
07 1.10
Ветер
(напр.,м/с)
Видим. Явления Облачность Т
(С)
Тd
(С)
f
(%)
Тe
(С)
Тes
(С)
Комфортность P
(гПа)
Po
(гПа)
Тmin
(С)
Tmax
(С)
R
(мм)
R24
(мм)
S
(см)
Ю 1 20 км 3/3 1000 м
[Cu Sc]
+21.8 +17.7 78 +26 +29 душно 1012.9 1007.2
ЮЗ 1 20 км 3/3 600 м
[Cu Sc]
+22.7 +17.4 72 +28 +32 душно 1013.3 1007.6
Ю 2 20 км 3/3 600 м
[Cu Sc]
+24.4 +18.4 69 +29 +35 душно 1013.6 1007.9
ЮВ 3 23 км 3/3 1000 м
[Cu Sc Ci ing]
+24.8 +18.2 67 +29 +35 душно 1013.4 1007.7
Ю 3 23 км 4/3 1000 м
[Cu Sc Ac cuf Ci ing]
+25.8 +18.0 62 +30 +36 душно 1013.4 1007.7
Ю 2 20 км 4/3 1000 м
[Cu Sc Ac cuf Ci ing]
+25.6 +17.5 61 +30 +36 душно 1013.3 1007.6
Ю 1 12 км осадки на расстоянии 8/5 600 м
[Cu Sc Ac As Cs]
+24.6 +16.3 60 +28 +31 душно 1013.1 1007.4
СЗ 4 н/о н/о +20.9 +17.4 80 +25 +25 комфорт 1013.8 1008.0
СЗ 1 н/о н/о +21.4 +17.3 77 +25 +25 комфорт 1013.7 1008.0
В 1 н/о н/о +22.2 +16.3 69 +26 +26 душно 1013.2 1007.5
штиль 0 н/о н/о +21.2 +16.9 76 +25 +25 комфорт 1013.3 1007.6
СВ 1 30 км {дождь} 1/0
[Ci fib]
+20.3 +17.8 86 +25 +25 комфорт 1012.7 1006.9 +27.0 0.2
ЮВ 2 35 км ясно +21.0 +15.3 70 +25 +25 комфорт 1012.7 1006.9
В 1 35 км 1/0
[Ac lent Ci fib]
+20.4 +15.3 73 +24 +24 комфорт 1012.8 1007.0
В 1 н/о н/о +20.2 +14.2 68 +24 +24 комфорт 1012.8 1007.0
ЮВ 4 н/о н/о +22.4 +14.3 60 +26 +26 жарко 1010.6 1004.9
ЮВ 6 н/о н/о +23.0 +14.9 60 +27 +27 душно 1007.4 1001.7
ЮВ 5 н/о н/о +23.1 +16.2 65 +28 +28 душно 1006.6 1000.9
В 6 н/о н/о +23.2 +16.6 66 +28 +28 душно 1005.9 1000.2
ЮВ 7 2000 м слаб. дождь 10/10 600 м
[Sc]
+22.4 +18.6 79 +28 +28 душно 1004.7 999.0 +20.2 0.1 0.3
ЮВ 3 8000 м слаб. дождь 10/10 600 м
[Frnb]
+20.4 +19.5 95 +25 +25 комфорт 1004.5 998.8
ЮВ 4 16 км 10/9 600 м
[Sc Ac As]
+21.2 +19.1 88 +26 +26 душно 1004.2 998.5
В 5 16 км {дождь} 9/9 600 м
[Cu Sc Ac cast]
+22.4 +18.3 78 +28 +28 душно 1004.0 998.3
В 4 18 км 9/8 1000 м
[Sc Ac As]
+23.5 +17.9 71 +28 +29 душно 1003.3 997.7
В 4 13 км 10/8 600 м
[Cu Sc Ac As Cs]
+23.7 +18.5 73 +28 +29 душно 1002.3 996.7
ЮВ 5 13 км {дождь} 9/3 600 м
[Sc Ac As Cs]
+25.6 +18.8 66 +31 +33 очень
душно
1001.2 995.6 7 0.3
ЮВ 5 12 км 10/9 600 м
[Sc Ac cast]
+25.0 +19.4 71 +30 +30 душно 1000.5 994.9
ЮВ 4 н/о н/о +23.8 +15.6 60 +27 +27 жарко 998.0 992.4
ЮВ 4 18 км зарница 9/8 1000 м
[Cu Sc Ac As]
+23.4 +18.0 72 +29 +29 душно 997.6 992.0 +26.5 7
ЮВ 4 18 км зарница 8/5 1000 м
[Cu Sc As trans Cc]
+23.4 +18.3 73 +29 +29 душно 996.4 990.8
Ю 3 20 км зарница 9/8 1000 м
[Cu Sc Ac As]
+23.5 +17.3 68 +27 +27 душно 996.4 990.8
ЮЗ 6 н/о н/о +22.9 +16.0 65 +27 +27 душно 995.6 990.0
СЗ 4 н/о н/о +16.9 +9.6 62 +16 +16 996.6 990.9
ЮВ 4 н/о н/о +14.2 +11.2 82 +13 +13 995.3 989.5
ЮВ 3 н/о н/о +15.1 +9.7 70 +14 +14 995.3 989.5
В 1 н/о н/о +16.1 +10.3 68 +17 +17 995.0 989.3
В 1 17 км осадки на расстоянии {гроза, ливн. дождь} 8/5 1000 м
[Cb cap Ac As]
+16.5 +10.8 69 +17 +18 994.6 988.9 +14.4 4 10.8
В 1 16 км осадки на расстоянии 9/8 1000 м
[Cb cap Ac As]
+16.8 +11.7 72 +18 +18 994.7 989.0
В 5 8000 м гроза без осадков 8/8 1000 м
[Cb cap]
+15.4 +11.3 77 +14 +15 995.2 989.4
В 3 2000 м гроза, ливневой дождь 10/8 600 м
[Cb cap As op]
+13.4 +12.5 94 +12 +12 996.9 991.1
С 2 10 км гроза без осадков {ливн. дождь} 9/9 600 м
[Cb cap]
+14.6 +10.0 74 +14 +15 996.7 990.9
С 2 8000 м гроза, ливневой дождь 10/9 1000 м
[Cb cap As trans]
+15.0 +12.3 84 +15 +15 996.8 991.0
Ю 2 20 км в посл. час гроза {ливн. дождь} 9/8 1000 м
[Cu Sc As trans]
+16.1 +10.9 71 +16 +17 997.7 991.9 6
ЮВ 1 12 км слаб. ливневой дождь 9/6 1000 м
[Cu Sc As trans]
+16.7 +12.1 74 +18 +19 997.8 992.0
ЮВ 4 н/о н/о +15.4 +10.9 75 +14 +14 998.2 992.4
В 2 н/о н/о +14.2 +11.4 83 +14 +14 998.6 992.8
СВ 1 н/о н/о +14.1 +10.6 79 +14 +14 999.3 993.5
В 3 н/о н/о +13.4 +11.0 85 +12 +12 999.8 994.0
В 2 12 км ливневой дождь 10/10 600 м
[Frnb]
+13.3 +11.9 91 +13 +13 1000.0 994.2 +17.9 16
С 2 20 км в посл. час дождь 1/1 600 м
[Sc]
+13.7 +10.7 82 +13 +13 1000.7 994.9
С 4 20 км 1/1 600 м
[Sc]
+13.2 +9.8 80 +12 +12 1001.6 995.7
С 2 н/о н/о +12.3 +9.0 80 +11 +11 1002.9 997.0
СВ 2 н/о н/о +12.5 +6.4 66 +12 +12 1004.0 998.1
С 2 н/о н/о +13.7 +6.8 63 +13 +13 1004.5 998.7
СВ 1 н/о н/о +12.3 +9.0 80 +12 +12 1005.5 999.6
В 1 н/о н/о +12.2 +8.4 78 +12 +12 1005.4 999.5
СЗ 2 25 км {дождь} 8/8 600 м
[Cu Sc]
+13.4 +8.2 71 +13 +13 1005.3 999.4 +11.9 2 18.9
СЗ 1 30 км 8/8 1000 м
[Cu Sc]
+14.8 +6.9 59 +15 +16 1006.3 1000.4
ЮВ 2 25 км 3/3 1000 м
[Cu Sc Ac lent]
+18.0 +10.8 63 +19 +22 1006.9 1001.1
ЮВ 4 25 км 3/1 1000 м
[Cu Sc Ac trans]
+19.6 +10.7 56 +21 +25 комфорт 1007.2 1001.4
В 4 25 км 9/3 1000 м
[Cu Sc Ac trans]
+19.8 +11.4 58 +21 +23 комфорт 1007.7 1001.9
ЮВ 4 25 км 9/3 1500 м
[Cu Sc Ac As]
+20.6 +10.5 52 +22 +24 комфорт 1007.9 1002.2
ЮВ 2 15 км осадки на расстоянии 10/9 1500 м
[Cu Sc Ac As]
+19.8 +11.4 58 +22 +22 комфорт 1007.8 1002.0 11.9
ЮВ 3 17 км 10/3 1500 м
[Cu Sc As trans]
+20.8 +11.4 55 +23 +25 комфорт 1007.1 1001.4
ЮВ 5 н/о н/о +20.6 +8.6 46 +22 +22 комфорт 1006.2 1000.5
ЮВ 7 н/о н/о +20.9 +8.6 45 +22 +22 комфорт 1005.7 1000.0
В 7 н/о н/о +18.1 +12.8 71 +17 +17 1004.4 998.6
В 9 н/о н/о +17.5 +13.3 76 +16 +16 1003.8 998.0
ЮВ 10 1000 м ливневой дождь туман 10/10 1000 м
[Cu Sc]
+19.4 +14.9 75 +20 +20 1002.5 996.8 +21.1 5
ЮВ 7 3000 м гроза, ливневой дождь 10/10 600 м
[Cb cap]
+18.2 +16.3 89 +18 +18 1003.5 997.7
ЮВ 7 2000 м гроза, ливневой дождь 10/10 600 м
[Cb cap]
+19.4 +16.4 83 +21 +21 комфорт 1003.2 997.5
В 8 н/о н/о +17.8 +14.4 80 +17 +17 1003.5 997.7
ЮВ 6 н/о н/о +20.1 +14.7 71 +22 +22 комфорт 1003.6 997.9
Ю 5 н/о н/о +19.3 +11.7 61 +20 +20 1004.6 998.9
Ю 4 н/о н/о +18.9 +11.5 62 +20 +20 1004.9 999.2
Ю 3 н/о н/о +18.7 +11.8 64 +20 +20 1005.4 999.7
Ю 2 10 км 9/9 600 м
[Sc]
+18.4 +13.1 71 +19 +19 1005.9 1000.1 +18.2 8 12.5
ЮЗ 3 10 км 9/9 600 м
[Sc]
+18.0 +13.4 74 +18 +18 1007.1 1001.3
ЮЗ 2 14 км 9/9 600 м
[Cu Sc]
+18.6 +13.9 74 +20 +20 1008.3 1002.5
З 1 18 км 9/9 600 м
[Cb cap]
+18.5 +13.0 70 +20 +21 1009.1 1003.3
СЗ 2 7000 м гроза без осадков 9/9 600 м
[Cb cap]
+18.3 +13.5 74 +19 +20 1009.7 1003.9
ЮВ 2 3000 м слаб. дождь {гроза} 10/10 600 м
[Cb cap]
+16.9 +14.1 84 +17 +17 1010.5 1004.7
В 3 20 км в посл. час дождь 9/9 1000 м
[Cu Sc]
+17.3 +13.3 77 +17 +18 1010.5 1004.7 2 14.2
В 2 4000 м слаб. дождь 9/8 1000 м
[Cu Sc Ac As]
+15.4 +12.5 83 +15 +16 1010.8 1004.9
ЮВ 1 н/о н/о +18.5 +12.1 66 +20 +20 1011.3 1005.5
В 2 н/о н/о +19.9 +11.2 57 +22 +22 комфорт 1011.0 1005.2
В 2 н/о н/о +18.4 +11.1 62 +19 +19 1010.8 1005.0
В 3 н/о н/о +17.2 +9.2 59 +17 +17 1010.8 1005.0
В 2 18 км зарница {дождь} 10/4 1000 м
[Cb cap Ci ing]
+17.3 +10.3 63 +18 +18 1010.4 1004.6 +19.7 2
ЮВ 2 14 км гроза без осадков 9/9 1000 м
[Cb cap]
+17.7 +11.4 67 +18 +18 1010.7 1004.9
С 1 2000 м гроза, ливневой дождь 10/10 600 м
[Cb cap]
+15.2 +14.2 94 +16 +16 1011.8 1005.9
СВ 3 н/о н/о +13.6 +11.4 87 +12 +12 1011.8 1005.9
СВ 1 н/о н/о +13.8 +11.7 87 +14 +14 1012.8 1006.9
В 1 н/о н/о +13.8 +10.1 78 +14 +14 1012.9 1007.0
СВ 2 н/о н/о +13.5 +10.0 79 +13 +13 1013.3 1007.4
СВ 2 н/о н/о +14.2 +10.3 77 +14 +14 1013.7 1007.8
СВ 2 40 км 3/1 600 м
[Cu Sc Ac trans Cc]
+15.6 +11.4 76 +16 +16 1013.6 1007.7 +13.2 9 11.5
СВ 1 40 км 3/1 1000 м
[Cu Sc Ac trans Ci sp]
+17.7 +12.5 72 +19 +21 1014.3 1008.5
ЮЗ 1 40 км 3/1 600 м
[Cu Sc Ac As Cc]
+18.7 +11.2 62 +20 +25 1014.8 1009.0
СЗ 2 40 км 1/1 600 м
[Cu med, cong Ac trans]
+19.4 +11.2 59 +21 +28 комфорт 1014.8 1009.0
СЗ 2 40 км 1/1 600 м
[Cu med, cong Ac trans]
+21.0 +12.8 59 +24 +33 комфорт 1015.1 1009.3
СЗ 3 35 км 3/3 1000 м
[Cu Sc Ac trans]
+21.0 +9.3 47 +23 +29 комфорт 1015.4 1009.6
С 2 35 км 3/3 1500 м
[Cu Sc Ac trans]
+20.6 +9.0 47 +23 +29 комфорт 1015.2 1009.4 9.8
СЗ 4 35 км 5/5 1000 м
[Cu Sc Ac trans]
+21.4 +12.1 55 +24 +26 комфорт 1015.0 1009.2
СЗ 5 н/о н/о +20.1 +9.7 51 +21 +21 комфорт 1015.1 1009.3
СЗ 4 н/о н/о +21.6 +11.1 51 +23 +23 комфорт 1014.8 1009.1
СЗ 4 н/о н/о +19.8 +11.1 57 +21 +21 комфорт 1015.2 1009.4
СЗ 3 н/о н/о +18.8 +11.4 62 +20 +20 1015.5 1009.7
В 1 35 км 1/1 1000 м
[Sc diur, vesp Ci fib]
+17.8 +12.8 73 +19 +19 1015.3 1009.5 +22.7
СВ 2 35 км 1/1 1000 м
[Sc diur, vesp Ci fib]
+17.6 +10.7 64 +18 +18 1015.4 1009.6
ЮЗ 1 35 км 1/1 1000 м
[Cu hum Ci fib]
+16.8 +9.3 61 +18 +18 1015.5 1009.6
ЮВ 2 н/о н/о +17.1 +7.5 53 +17 +17 1016.1 1010.3
С 1 н/о н/о +16.0 +6.2 52 +17 +17 1015.9 1010.0
В 1 н/о н/о +15.8 +6.3 53 +17 +17 1015.5 1009.6
В 2 н/о н/о +15.8 +6.8 55 +16 +16 1015.3 1009.4
ЮВ 2 н/о н/о +16.1 +7.9 58 +16 +16 1015.1 1009.2
В 2 40 км 1/0
[Cc]
+16.8 +8.5 58 +17 +18 1015.0 1009.1 +15.0
Ю 1 40 км ясно +18.3 +10.5 60 +20 +22 1015.2 1009.4
Ю 2 40 км ясно +19.8 +11.3 58 +22 +27 комфорт 1015.2 1009.4
Ю 2 40 км 1/1 1000 м
[Cu hum]
+21.2 +10.6 51 +23 +30 комфорт 1014.9 1009.1
ЮЗ 2 40 км 1/1 1000 м
[Cu hum]
+21.3 +11.2 53 +23 +31 комфорт 1014.5 1008.7
ЮЗ 2 40 км 1/1 1500 м
[Cu med, cong]
+22.3 +11.8 51 +25 +33 комфорт 1014.0 1008.3
СЗ 2 40 км 1/1 1500 м
[Cu med, cong]
+22.6 +8.4 40 +24 +32 комфорт 1013.4 1007.7
З 2 30 км 1/1 1500 м
[Cu med, cong]
+23.5 +10.9 45 +25 +31 комфорт 1012.8 1007.1
ЮЗ 2 н/о н/о +23.8 +11.2 45 +25 +25 комфорт 1012.8 1007.1
СЗ 4 н/о н/о +22.6 +10.5 46 +24 +24 комфорт 1012.4 1006.7
СЗ 4 н/о н/о +20.1 +10.6 54 +22 +22 комфорт 1012.5 1006.7
С 4 н/о н/о +19.1 +8.2 49 +20 +20 1012.4 1006.6
С 3 30 км ясно +18.3 +11.7 65 +19 +19 1011.9 1006.1 +24.4
С 2 30 км ясно +17.3 +12.6 74 +18 +18 1011.8 1006.0
С 2 30 км ясно +17.0 +12.8 76 +17 +17 1011.9 1006.1
С 3 н/о н/о +16.3 +11.3 72 +16 +16 1012.1 1006.3
С 2 н/о н/о +15.9 +9.4 65 +16 +16 1011.3 1005.5
С 3 н/о н/о +15.0 +10.1 72 +14 +14 1010.1 1004.3
С 1 н/о н/о +14.9 +9.8 72 +15 +15 1010.2 1004.3
С 1 н/о н/о +14.6 +9.7 72 +15 +15 1010.1 1004.2
В 2 17 км 1/1 1000 м
[Sc]
+16.5 +10.0 65 +17 +17 1009.9 1004.1 +14.6
ЮВ 2 17 км 1/1 1000 м
[Sc]
+18.6 +12.2 66 +20 +22 1010.0 1004.2
Местоположение метеостанции Макарска (Хорватия): широта 43.28 долгота 17.02 высота над уровнем моря 49 м.
В архиве по умолчанию представлена погода в Макарска за последнюю неделю. Архивные данные за месяц целиком и за предыдущие месяцы, начиная с января 2011 года, Вы можете получить, выбрав интересующий диапазон дат из раскрывающегося списка и нажав кнопку "Найти!".
*Определитесь, кто Вы:
Внимание! Время в таблицах - всемирное. Для получения местного времени необходимо прибавить поправку, которая равна 1 ч.
Смотрите также архив погоды в соседних городах и на ближайших метеорологических станциях:
Партнеры нашего сайта:      
Пояснения к столбцам:
  • Ветер - указаны скорость ветра в м/с - средняя за 10 мин, порывы в срок и между сроками (в фигурных скобках) и направление, откуда дует ветер: С - северный,
  • СВ - северо-восточный, В - восточный, ЮВ - юго-восточный, Ю - южный, ЮЗ - юго-западный, З - западный, СЗ - северо-западный.
  • Видимость - горизонтальная дальность видимости в метрах или километрах. При видимости от 1 до 10 км при отсутствии осадков обычно наблюдается дымка, при ухудшении видимости до 1 км и менее - туман. В сухую погоду видимость может ухудшаться дымом, пылью или мглою.
  • Явления - указаны атмосферные явления, наблюдавшиеся в срок или в последний час перед сроком; фигурными скобками обозначены явления, наблюдавшиеся между сроками (за 1-3 часа до срока); квадратными скобками обозначены град или гололедные отложения с указанием их диаметра в мм.
  • Облачность - указаны через наклонную черту общая и нижняя облачность в баллах и высота нижней границы облаков в метрах; квадратными скобками обозначены формы облаков: Ci - перистые, Cs - перисто-слоистые, Cc - перисто-кучевые, Ac - высококучевые, As - высокослоистые, Sc - слоисто-кучевые, Ns - слоисто-дождевые, Cu - кучевые, Cb - кучево-дождевые. Подробнее классификацию облаков см. в Атласе облаков (PDF).
  • T - Температура воздуха - температура, измеренная на высоте 2 м над землей.
  • Td - Температура точки росы - температура, при понижении до которой содержащийся в воздухе водяной пар достигнет насыщения.
  • f - Относительная влажность воздуха - влажноcть воздуха, измеренная на высоте 2 м над землей.
  • Te - Эффективная температура - температура, которую ощущает одетый по сезону человек в тени. Характеристика душности погоды. При расчете учитывается влияние влажности воздуха и скорости ветра на теплоощущения человека.
  • Tes - Эффективная температура на солнце - температура, которую ощущает человек, с поправкой на солнечный нагрев. Характеристика знойности погоды. Зависит от высоты солнца над горизонтом, облачности и скорости ветра. Ночью, в пасмурную погоду, а также при ветре 12 м/с и более поправка равна нулю.
  • P - Атмосферное давление - приведенное к уровню моря атмосферное давление.
  • Po - Атмосферное давление - измеренное на уровне метеостанции атмосферное давление.
  • Tmin - Минимальная температура - минимум температуры воздуха на высоте 2 м над землей.
  • Tmax - Максимальная температура - максимум температуры воздуха на высоте 2 м над землей.
  • R - Количество осадков - Количество выпавших осадков за период времени, мм. При наведении курсора мыши на число - период времени, за который выпало указанное количество осадков.
  • R24 - Количество осадков - Количество выпавших осадков за 24 часа, мм.
  • S - Снежный покров - Высота снежного покрова, см. При наведении курсора мыши на число - состояние снежного покрова и степень покрытия местности в баллах.